When you browse on this site, cookies collect data to enhance your experience and personalize the content and advertising you see.
Visit our Privacy Policy to learn more. By continuing to use the site, you agree to this use of cookies and data.
  • En España
  • Lista de países
  • Para 7 días
  • Temperatura del agua
  • Mapa Satelital
  • El tiempo en el mapa
  • Informadores
  • user-avatar
    Iniciar sesión

    Tiempo cada hora Birevo

    Hoy, 22 Marzo, Viernes

    Tiempo Temperatura Precipitaciones Viento Presión Humedad
    00:00 -2°C° 0 mm 2 mps 744 mmHg 93%
    01:00 -2°C° 0 mm 2 mps 744 mmHg 93%
    02:00 -2°C° 0 mm 2 mps 744 mmHg 93%
    03:00 -3°C° 0 mm 2 mps 743 mmHg 93%
    04:00 -4°C° 0 mm 3 mps 743 mmHg 93%
    05:00 -2°C° 0 mm 3 mps 742 mmHg 93%
    06:00 -3°C° 0 mm 4 mps 741 mmHg 93%
    07:00 -2°C° 0.2 mm 4 mps 740 mmHg 91%
    08:00 -2°C° 0.2 mm 5 mps 739 mmHg 90%
    09:00 -2°C° 0 mm 7 mps 738 mmHg 88%
    10:00 -2°C° 0.9 mm 7 mps 737 mmHg 89%
    11:00 -1°C° 0.9 mm 7 mps 736 mmHg 91%
    12:00 -1°C° 0.9 mm 7 mps 735 mmHg 93%
    13:00 -1°C° 0.8 mm 7 mps 735 mmHg 92%
    14:00 -1°C° 0.8 mm 7 mps 735 mmHg 91%
    15:00 -1°C° 0.8 mm 7 mps 735 mmHg 91%
    16:00 -1°C° 0.5 mm 7 mps 735 mmHg 88%
    17:00 -2°C° 0.5 mm 8 mps 735 mmHg 85%
    18:00 -2°C° 0.5 mm 8 mps 736 mmHg 82%
    19:00 -2°C° 0.1 mm 8 mps 736 mmHg 83%
    20:00 -3°C° 0.1 mm 7 mps 736 mmHg 83%
    21:00 -4°C° 0.1 mm 7 mps 737 mmHg 84%
    22:00 -4°C° 0.1 mm 7 mps 737 mmHg 85%
    23:00 -4°C° 0.1 mm 7 mps 737 mmHg 85%

    Mañana, 23 Marzo, Sábado

    Tiempo Temperatura Precipitaciones Viento Presión Humedad
    00:00 -3°C° 0.1 mm 7 mps 737 mmHg 86%
    01:00 -3°C° 0.1 mm 7 mps 737 mmHg 87%
    02:00 -3°C° 0.1 mm 7 mps 738 mmHg 88%
    03:00 -3°C° 0.1 mm 7 mps 738 mmHg 89%
    04:00 -3°C° 0.2 mm 7 mps 739 mmHg 90%
    05:00 -3°C° 0.2 mm 7 mps 740 mmHg 90%
    06:00 -3°C° 0.2 mm 6 mps 740 mmHg 91%
    07:00 -3°C° 0 mm 6 mps 741 mmHg 90%
    08:00 -3°C° 0 mm 6 mps 742 mmHg 90%
    09:00 -3°C° 0 mm 6 mps 744 mmHg 89%
    10:00 -3°C° 0 mm 6 mps 744 mmHg 89%
    11:00 -3°C° 0 mm 6 mps 745 mmHg 90%
    12:00 -2°C° 0 mm 6 mps 745 mmHg 90%
    13:00 -1°C° 0 mm 5 mps 745 mmHg 89%
    14:00 -1°C° 0 mm 5 mps 745 mmHg 88%
    15:00 -1°C° 0 mm 5 mps 745 mmHg 87%
    16:00 -1°C° 0 mm 4 mps 745 mmHg 86%
    17:00 0°C° 0 mm 3 mps 745 mmHg 86%
    18:00 -1°C° 0 mm 3 mps 746 mmHg 86%
    19:00 -1°C° 0 mm 2 mps 746 mmHg 87%
    20:00 -1°C° 0 mm 2 mps 746 mmHg 88%
    21:00 +1°C° 0 mm 1 mps 746 mmHg 88%
    22:00 +1°C° 0 mm 1 mps 746 mmHg 88%
    23:00 0°C° 0 mm 1 mps 746 mmHg 87%

    Pasado mañana, 24 Marzo, Domingo

    Tiempo Temperatura Precipitaciones Viento Presión Humedad
    00:00 -1°C° 0 mm 0 mps 745 mmHg 87%
    01:00 0°C° 0 mm 1 mps 745 mmHg 87%
    02:00 0°C° 0 mm 1 mps 745 mmHg 87%
    03:00 -3°C° 0 mm 2 mps 744 mmHg 87%
    04:00 -3°C° 0 mm 2 mps 743 mmHg 88%
    05:00 -4°C° 0 mm 3 mps 743 mmHg 88%
    06:00 -4°C° 0 mm 3 mps 742 mmHg 89%
    07:00 -3°C° 0 mm 4 mps 742 mmHg 89%
    08:00 -3°C° 0 mm 4 mps 741 mmHg 88%
    09:00 -2°C° 0 mm 5 mps 741 mmHg 88%
    10:00 -2°C° 0.2 mm 5 mps 740 mmHg 89%
    11:00 -1°C° 0.2 mm 5 mps 740 mmHg 90%
    12:00 -1°C° 0.2 mm 5 mps 739 mmHg 91%
    13:00 -1°C° 0.2 mm 5 mps 739 mmHg 92%
    14:00 -1°C° 0.2 mm 5 mps 738 mmHg 92%
    15:00 -1°C° 0.2 mm 4 mps 738 mmHg 93%
    16:00 -1°C° 0 mm 4 mps 738 mmHg 92%
    17:00 +1°C° 0 mm 3 mps 738 mmHg 91%
    18:00 +1°C° 0 mm 3 mps 737 mmHg 90%
    19:00 0°C° 0.1 mm 3 mps 737 mmHg 90%
    20:00 0°C° 0.1 mm 3 mps 738 mmHg 90%
    21:00 -1°C° 0.1 mm 3 mps 738 mmHg 90%
    22:00 -1°C° 0 mm 3 mps 738 mmHg 89%
    23:00 -2°C° 0 mm 3 mps 738 mmHg 88%

    25 Marzo, Lunes

    Tiempo Temperatura Precipitaciones Viento Presión Humedad
    00:00 -2°C° 0 mm 3 mps 738 mmHg 88%
    01:00 -4°C° 0 mm 3 mps 738 mmHg 87%
    02:00 -4°C° 0 mm 3 mps 738 mmHg 87%
    03:00 -4°C° 0 mm 3 mps 738 mmHg 86%
    04:00 -4°C° 0 mm 3 mps 738 mmHg 86%
    05:00 -4°C° 0 mm 3 mps 737 mmHg 85%
    06:00 -4°C° 0 mm 3 mps 737 mmHg 85%
    07:00 -4°C° 0 mm 3 mps 737 mmHg 82%
    08:00 -3°C° 0 mm 4 mps 737 mmHg 80%
    09:00 -2°C° 0 mm 4 mps 737 mmHg 77%
    10:00 -1°C° 0 mm 4 mps 737 mmHg 73%
    11:00 0°C° 0 mm 4 mps 737 mmHg 69%
    12:00 +1°C° 0 mm 4 mps 737 mmHg 65%
    13:00 +3°C° 0 mm 4 mps 737 mmHg 63%
    14:00 +3°C° 0 mm 4 mps 737 mmHg 61%
    15:00 +4°C° 0 mm 4 mps 737 mmHg 58%
    16:00 +3°C° 0 mm 3 mps 737 mmHg 63%
    17:00 +2°C° 0 mm 3 mps 737 mmHg 67%
    18:00 +2°C° 0 mm 2 mps 737 mmHg 72%
    19:00 +2°C° 0 mm 2 mps 737 mmHg 73%
    20:00 +1°C° 0 mm 2 mps 738 mmHg 75%
    21:00 -1°C° 0 mm 2 mps 738 mmHg 76%
    22:00 -1°C° 0 mm 2 mps 738 mmHg 78%
    23:00 -1°C° 0 mm 2 mps 738 mmHg 79%

    26 Marzo, Martes

    Tiempo Temperatura Precipitaciones Viento Presión Humedad
    00:00 -1°C° 0 mm 2 mps 738 mmHg 80%
    01:00 -1°C° 0 mm 2 mps 738 mmHg 81%
    02:00 -1°C° 0 mm 2 mps 738 mmHg 82%
    03:00 -2°C° 0 mm 2 mps 739 mmHg 83%
    04:00 -2°C° 0 mm 2 mps 739 mmHg 83%
    05:00 -2°C° 0 mm 2 mps 739 mmHg 83%
    06:00 -2°C° 0 mm 2 mps 739 mmHg 83%
    07:00 -1°C° 0 mm 2 mps 739 mmHg 81%
    08:00 -1°C° 0 mm 2 mps 739 mmHg 78%
    09:00 +1°C° 0 mm 2 mps 739 mmHg 76%
    10:00 +1°C° 0 mm 3 mps 740 mmHg 72%
    11:00 +2°C° 0 mm 3 mps 740 mmHg 68%
    12:00 +3°C° 0 mm 3 mps 740 mmHg 64%
    13:00 +1°C° 0.2 mm 4 mps 740 mmHg 68%
    14:00 +1°C° 0.2 mm 5 mps 740 mmHg 73%
    15:00 -1°C° 0.2 mm 6 mps 740 mmHg 78%
    16:00 0°C° 0.1 mm 5 mps 740 mmHg 76%
    17:00 -1°C° 0 mm 5 mps 740 mmHg 74%
    18:00 -2°C° 0 mm 4 mps 741 mmHg 72%
    19:00 -2°C° 0 mm 4 mps 741 mmHg 74%
    20:00 -2°C° 0 mm 3 mps 742 mmHg 75%
    21:00 -4°C° 0 mm 3 mps 742 mmHg 77%
    22:00 -4°C° 0 mm 3 mps 743 mmHg 77%
    23:00 -4°C° 0 mm 3 mps 743 mmHg 77%

    27 Marzo, Miércoles

    Tiempo Temperatura Precipitaciones Viento Presión Humedad
    00:00 -4°C° 0 mm 3 mps 743 mmHg 77%
    01:00 -4°C° 0 mm 3 mps 743 mmHg 76%
    02:00 -4°C° 0 mm 3 mps 743 mmHg 76%
    03:00 -4°C° 0 mm 3 mps 743 mmHg 75%
    04:00 -4°C° 0 mm 4 mps 743 mmHg 74%
    05:00 -4°C° 0 mm 4 mps 743 mmHg 73%
    06:00 -4°C° 0 mm 4 mps 743 mmHg 72%
    07:00 -4°C° 0 mm 5 mps 744 mmHg 67%
    08:00 -2°C° 0 mm 5 mps 744 mmHg 61%
    09:00 -2°C° 0 mm 6 mps 744 mmHg 56%
    10:00 -1°C° 0 mm 6 mps 744 mmHg 54%
    11:00 +1°C° 0 mm 6 mps 744 mmHg 51%
    12:00 +2°C° 0 mm 7 mps 744 mmHg 49%
    13:00 +2°C° 0 mm 7 mps 743 mmHg 50%
    14:00 +3°C° 0 mm 7 mps 743 mmHg 52%
    15:00 +3°C° 0 mm 7 mps 743 mmHg 53%
    16:00 +3°C° 0 mm 6 mps 743 mmHg 59%
    17:00 +2°C° 0 mm 6 mps 743 mmHg 64%
    18:00 +1°C° 0 mm 5 mps 743 mmHg 70%
    19:00 +1°C° 0 mm 5 mps 743 mmHg 74%
    20:00 0°C° 0 mm 5 mps 743 mmHg 78%
    21:00 -1°C° 0 mm 5 mps 744 mmHg 82%
    22:00 -1°C° 0 mm 5 mps 744 mmHg 84%
    23:00 -1°C° 0 mm 5 mps 744 mmHg 85%
    Mostrar más